Regional Weather Roundup
Issued by NWS Bismarck, ND

Home | Current Version | Previous Version | Text Only | Print | Product List | Glossary On
Versions: 1 2 3 4 5 6 7 8 9 10 11 12 13 14 15 16 17 18 19 20 21 22 23 24 25 26 27 28 29 30 31 32 33 34 35 36 37 38 39 40 41 42 43 44 45 46 47 48 49 50
000
ASUS43 KBIS 191910
RWRBIS

NWR BROADCAST TEXT
NATIONAL WEATHER SERVICE BISMARCK ND
200 PM CDT TUE SEP 19 2017

NOTE: "FAIR" INDICATES FEW OR NO CLOUDS BELOW 12,000 FEET WITH NO
SIGNIFICANT WEATHER AND/OR OBSTRUCTIONS TO VISIBILITY.


CITY           SKY/WX    TMP DP  RH WIND       PRES   REMARKS
WILLISTON      CLOUDY    62  51  67 W17       29.47R
MINOT          CLOUDY    70  60  70 S15G24    29.43F
MINOT AFB      CLOUDY    68  58  71 S16G22    29.42F
BISMARCK       CLOUDY    71  53  52 S10       29.47F
DICKINSON      CLOUDY    59  51  75 W10       29.51S
GARRISON         N/A     68  58  70 SW14      29.46S
HETTINGER ARPT CLOUDY    61  48  62 NW16      29.52F
JAMESTOWN      CLOUDY    71  63  75 SE16      29.50F
CARRINGTON     MOCLDY    68  64  88 SE21G35   29.51F
HAZEN          FAIR      68  54  60 W12       29.49R
LINTON         CLOUDY    70  63  78 S18G25    29.50S
MANDAN         CLOUDY    70  64  83 S14       29.47F
RUGBY          FAIR      66  66 100 SE22G31   29.46F
STANLEY        FAIR      59  57  94 SW10G16   29.47F
TIOGA          CLOUDY    59  57  94 W15       29.46S
WATFORD CITY   FAIR      61  52  72 W13       29.48R
$$

CITY           SKY/WX    TMP DP  RH WIND       PRES   REMARKS
GRAND FORKS    CLOUDY    72  64  76 SE18      29.59F
GRAND FORKS AF CLOUDY    70  64  83 S9        29.61S
DEVILS LAKE    CLOUDY    65  62  90 SE22      29.53F
FARGO          CLOUDY    77  63  61 SE22G38   29.60F
CANDO          CLOUDY    64  64 100 SE15G23   29.55F
CAVALIER       CLOUDY    64  63  94 SE9G16    29.60F
GRAFTON        CLOUDY    68  63  83 SE14G29   29.63S
GWINNER        MOCLDY    73  64  73 SE23G30   29.57F
LANGDON          N/A     61  61 100 SE20G32   29.59F FOG
ROLLA          CLOUDY    61  61 100 SE20      29.51F
WALHALLA       FAIR     N/A N/A N/A SE18      29.59F HAZE
$$

CITY           SKY/WX    TMP DP  RH WIND       PRES   REMARKS
ABERDEEN       CLOUDY    75  65  70 SE18      29.52F
MOBRIDGE       CLOUDY    73  65  75 S14G24    29.45F
BUFFALO          N/A     61  49  64 NW18      29.49S
RAPID CITY     SUNNY     73  45  35 VRB5      29.52S
SIDNEY         PTSUNNY   61  46  57 W22G28    29.49R
WOLF POINT     PTSUNNY   62  38  40 W21       29.51F
GLENDIVE         N/A     60  42  51 W18       29.55R
MILES CITY     CLOUDY    56  37  49 NW20      29.60R
BAKER          CLOUDY    57  41  55 NW12G22   29.56F
$$

CITY           SKY/WX    TMP DP  RH WIND       PRES   REMARKS
BILLINGS       CLOUDY    48  40  73 SW14      29.68S
GREAT FALLS    MOSUNNY   55  26  32 W21G26    29.63S
REGINA         CLOUDY    54  52  94 SW16      29.38F
ESTEVAN        CLOUDY    61  55  82 SW8       29.41S
$$





USA.gov is the U.S. government's official web portal to all federal, state and local government web resources and services.